Regional Weather Roundup
Issued by NWS Upton, NY

Current Version | Previous Version | Text Only | Print | Product List | Glossary On
Versions: 1 2 3 4 5 6 7 8 9 10 11 12 13 14 15 16 17 18 19 20 21 22 23 24 25 26 27 28 29 30 31 32 33 34 35 36 37 38 39 40 41 42 43 44 45 46 47 48 49 50
958 ASUS41 KOKX 051804 RWROKX REGIONAL WEATHER ROUNDUP NATIONAL WEATHER SERVICE NEW YORK NY 100 PM EST FRI FEB 05 2016 NOTE: "FAIR" INDICATES FEW OR NO CLOUDS BELOW 12,000 FEET WITH NO SIGNIFICANT WEATHER AND/OR OBSTRUCTIONS TO VISIBILITY. NYZ071-072-176-178-NJZ106-104-051900- NEW YORK CITY METRO AREA CITY SKY/WX TMP DP RH WIND PRES REMARKS CENTRAL PARK CLOUDY 33 29 85 VRB5 30.09S FOG WCI 29 LAGUARDIA APRT CLOUDY 36 27 69 NW16 30.06F WCI 26 KENNEDY INTL CLOUDY 35 27 72 N14 30.08F WCI 26 NEWARK/LIBERTY CLOUDY 37 30 75 W7 30.10S WCI 32 BRNX BOT. GARD N/A 34 32 93 W3 30.08R TETERBORO CLOUDY 35 27 72 NW3 30.08F $$ NYZ177-179-078>081-051900- LONG ISLAND NEW YORK CITY SKY/WX TMP DP RH WIND PRES REMARKS FARMINGDALE LGT SNOW 32 29 88 N15G25 30.04F VSB 1 WCI 22 ISLIP LGT SNOW 32 30 92 N25G38 29.98F VSB 3/4 WCI 19 SHIRLEY LGT SNOW 33 31 92 N16G33 30.01R VSB 3/4 WCI 23 RIVERHEAD N/A 32 30 93 E3 30.00S WESTHAMPTON SNOW 32 31 96 N21G30 29.98R VSB 1/2 WCI 20 EAST HAMPTON SNOW 32 31 96 N13G25 29.95F VSB 1/4 WCI 22 MONTAUK POINT N/A 33 32 96 N15G28 29.92F WCI 23 $$ NYZ052-065-067-051900- HUDSON VALLEY CITY SKY/WX TMP DP RH WIND PRES REMARKS WHITE PLAINS CLOUDY 34 24 67 NW18G25 30.01F WCI 23 NEWBURGH PTSUNNY 37 19 48 N12G23 30.06F WCI 30 MONTGOMERY CLOUDY 39 15 37 N16G25 30.05F WCI 30 POUGHKEEPSIE CLOUDY 40 14 34 N12G22 30.06F WCI 33 ALBANY CLOUDY 38 13 35 N18G24 30.08F WCI 28 $$ NJZ001-105-106-008-010-013-015-019>022-104-051900- NEW JERSEY CITY SKY/WX TMP DP RH WIND PRES REMARKS NEWARK/LIBERTY CLOUDY 37 30 75 W7 30.10S WCI 32 TETERBORO CLOUDY 35 27 72 NW3 30.08F CALDWELL PTSUNNY 35 29 78 VRB3 30.09F MORRISTOWN PTSUNNY 37 30 75 SW6 30.09F WCI 33 SOMERVILLE CLOUDY 39 23 52 NW13 30.10R WCI 31 SUSSEX PTSUNNY 41 16 36 N12G24 30.07F ANDOVER N/A 39 15 37 N14G23 30.08F WCI 31 TRENTON PTSUNNY 39 27 62 NW6 30.12S WCI 35 MILLVILLE PTSUNNY 39 31 72 NW10G21 30.16R WCI 32 ATLANTIC CITY PTSUNNY 35 50 100 NW16 30.15R WCI 25 WRIGHTSTOWN NOT AVBL TOMS RIVER CLOUDY 34 28 80 NW10 30.13R WCI 26 BELMAR CLOUDY 34 23 64 NW13G20 30.10R WCI 25 $$ PAZ047>061-062-071-051900- EASTERN PENNSYLVANIA CITY SKY/WX TMP DP RH WIND PRES REMARKS PHILADELPHIA PTSUNNY 43 23 45 NW17G23 30.17R ALLENTOWN CLOUDY 40 19 43 N12G21 30.14R WCI 33 SCRANTON CLOUDY 36 22 56 NW16G24 30.14R WCI 26 $$ CTZ002-004>006-009-010-012-RIZ004-006-007-MAZ004-011-015-051900- SOUTHERN NEW ENGLAND IN CT CITY SKY/WX TMP DP RH WIND PRES REMARKS BRADLEY INTL LGT SNOW 30 27 88 N10 30.01F FOG WCI 21 HARTFORD SNOW 31 29 92 N9G20 30.01F VSB 1/2 WCI 23 DANBURY CLOUDY 33 22 63 NW10 30.02F WCI 25 WTRBRY/OXFORD CLOUDY 30 18 59 N13G18 29.99F WCI 20 BRIDGEPORT LGT SNOW 33 29 85 N17G23 30.02F FOG WCI 22 MERIDEN LGT SNOW 32 28 85 N10G21 30.02R VSB 3/4 WCI 24 NEW HAVEN LGT SNOW 32 31 96 N17G28 30.01S VSB 1 WCI 21 CHESTER CLOUDY 32 30 93 N12G24 29.97R VSB 1/4 WCI 23 GROTON SNOW 32 32 100 N17G33 29.95S VSB 1/2 WCI 21 WILLIMANTIC SNOW 31 27 85 N18G28 29.97F VSB 1/2 WCI 19 IN RI CITY SKY/WX TMP DP RH WIND PRES REMARKS PROVIDENCE LGT SNOW 32 30 92 N15 29.94F VSB 1 WCI 22 BLOCK ISLAND CLOUDY 32 32 100 N29G39 29.91S VSB 1/2 WCI 18 WESTERLY HVY SNOW 32 31 96 N12G25 29.94F VSB 1/4 WCI 23 IN MA CITY SKY/WX TMP DP RH WIND PRES REMARKS BOSTON SNOW 31 31 100 N13 29.98R VSB 1/2 WCI 21 WORCESTER SNOW 27 24 89 N16G26 29.92F VSB 1/2 WCI 15 WESTFIELD CLOUDY 30 25 81 N8 30.01F WCI 22 PROVINCETOWN LGT SNOW 34 32 92 N24G36 29.87F FOG WCI 21 NANTUCKET HVY RAIN 36 33 89 N32G44 29.79R FOG WCI 23 $$ ANZ330-335-338-340-345-350-353-355-051900- COASTAL MARINE OBSERVATIONS STATION/POSITION TIME SKY/WX TEMP WIND PRES VSBY WAVE AIR SEA DIR/SP/G HT/PER (UTC) (F) (DEG/KT/KT) (MB) (MI) (FT/S) NY HARB ENTRANCE 1650 34 44 350/ 27/ 33 1016.9 5/ 5 4S FIRE IS NOT AVBL 20S FIRE ISLAND 1650 34 45 350/ 25/ 31 1015.1 6/ 6 GREAT SOUTH BAY NOT AVBL 23SW MTP 1750 35 47 350/ 29/ 35 1011.5 6/ 5 HUDSON CANYON 1650 38 51 1012.7 14/ 8 KINGS POINT 1700 32 39 30/ 18/ 22 1017.7 EXECUTION ROCKS NOT AVBL CENTRAL LI SOUND 1715 33 340/ 19/ 23 N/A 2/ 3 EASTERN LI SOUND 1700 35 42 340/ 17/ 23 N/A ROBBINS REEF 1700 32 340/ 16/ 23 1017.8 $$ >>>>>>>>>>>>>>>>>>>>>>>>>>>> KEY <<<<<<<<<<<<<<<<<<<<<<<<<<< > < > SKY/WX - SKY CONDITION/PRESENT WEATHER < > TMP - TEMPERATURE IN FAHRENHEIT < > DP - DEWPOINT IN FAHRENHEIT < > RH - RELATIVE HUMIDITY IN PERCENT < > WIND - DIRECTION AND SPEED IN MPH < > PRES - MEAN SEA LEVEL PRESSURE IN INCHES OF HG < > WCI - WIND CHILL INDEX < > VSB - VISIBILITY IN MILES < > HX - HEAT INDEX < > TC - TEMPERATURE IN CELSIUS < > VRB - VARIABLE WIND DIRECTION < > < >>>>>>>>>>>>>>>>>>>>>>>>>>>> KEY <<<<<<<<<<<<<<<<<<<<<<<<<<<

USA.gov is the U.S. government's official web portal to all federal, state and local government web resources and services.